This is the latest recevied weather packets stored in our database for station/object N4MRV-1. If no packets are shown the sender has not sent any weather packets the latest 10 day(s).
| Time | Temp. | Humidity | Pressure | Rain* | Wind** | Luminosity | Snow |
|---|---|---|---|---|---|---|---|
| 1778121916 | 18.89° C | 86% | 1009.6 hPa | 0 mm | - | 0 W/m² | - |
| 1778120116 | 19.44° C | 86% | 1010 hPa | 0 mm | - | 0 W/m² | - |
| 1778116517 | 19.44° C | 84% | 1010.1 hPa | 0 mm | - | 0 W/m² | - |
| 1778115636 | 19.44° C | 83% | 1009.6 hPa | 0 mm | - | 0 W/m² | - |
| 1778103016 | 21.67° C | 77% | 1009.8 hPa | 0 mm | - | 148 W/m² | - |
| 1778102115 | 21.67° C | 78% | 1009.9 hPa | 0 mm | - | 165 W/m² | - |
| 1778098516 | 20° C | 84% | 1010 hPa | 0 mm | - | 125 W/m² | - |
| 1778097615 | 20° C | 84% | 1010.2 hPa | 0 mm | - | 118 W/m² | - |
| 1778095815 | 19.44° C | 84% | 1009.8 hPa | 0 mm | - | 149 W/m² | - |
| 1778094016 | 18.89° C | 85% | 1010.4 hPa | 0 mm | - | 126 W/m² | - |
| 1778089517 | 18.89° C | 88% | 1011 hPa | 0 mm | - | 215 W/m² | - |
| 1778072417 | 18.33° C | 80% | 1011.9 hPa | 0 mm | - | 79 W/m² | - |
| 1778070617 | 18.33° C | 75% | 1012 hPa | 0 mm | - | 46 W/m² | - |
| 1778069716 | 18.33° C | 74% | 1011.9 hPa | 0 mm | - | 73 W/m² | - |
| 1778068816 | 17.78° C | 75% | 1011.8 hPa | 0 mm | - | 78 W/m² | - |
| 1778063416 | 17.22° C | 74% | 1012 hPa | 0 mm | - | 7 W/m² | - |
| 1778060716 | 17.22° C | 75% | 1011.7 hPa | 0 mm | - | 0 W/m² | - |
| 1778052616 | 18.33° C | 72% | 1012.2 hPa | 0 mm | - | 0 W/m² | - |
| 1778049936 | 18.89° C | 72% | 1012.5 hPa | 0 mm | - | 0 W/m² | - |
| 1778049016 | 18.89° C | 71% | 1012.5 hPa | 0 mm | - | 0 W/m² | - |
| 1778047236 | 19.44° C | 69% | 1012.6 hPa | 0 mm | - | 0 W/m² | - |
| 1778043616 | 20° C | 65% | 1013 hPa | 0 mm | - | 0 W/m² | - |
| 1778040056 | 21.11° C | 60% | 1013.2 hPa | 0 mm | - | 0 W/m² | - |
| 1778035516 | 21.67° C | 56% | 1012.9 hPa | 0 mm | - | 0 W/m² | - |
| 1778030136 | 22.78° C | 52% | 1012.4 hPa | 0 mm | - | 0 W/m² | - |
* Rain latest hour (hover to see other rain measurements)
** Current wind speed in m/s (hover to see current wind gust speed)